EW2625 Weather Reports


Display with metric or nautical units.
time (UTC)temp
F
wind
direction
speed
MPH
gust
MPH
rain 1hr
in
rain 24hr
in
rain mn
in
humidity
%
barometer
mb
20190920113510 71 267 0.0 0.0 0.00 0.00 0.00 31 1007.5
20190920113011 71 267 0.0 0.0 0.00 0.00 0.00 30 1007.4
20190920112510 71 267 0.0 0.0 0.00 0.00 0.00 30 1007.5
20190920112010 71 267 0.0 0.0 0.00 0.00 0.00 30 1007.4
20190920111510 71 267 0.0 0.0 0.00 0.00 0.00 29 1007.4
20190920111010 72 267 0.0 0.0 0.00 0.00 0.00 28 1007.4
20190920110510 72 267 0.0 0.0 0.00 0.00 0.00 28 1007.4
20190920110011 72 267 0.0 0.0 0.00 0.00 0.00 28 1007.3
20190920105510 72 267 0.0 0.0 0.00 0.00 0.00 28 1007.3
20190920105010 72 267 0.0 0.0 0.00 0.00 0.00 28 1007.2
20190920104510 72 267 0.0 0.0 0.00 0.00 0.00 28 1007.3
20190920104010 72 267 0.0 0.0 0.00 0.00 0.00 29 1007.3
20190920103510 73 267 0.0 0.0 0.00 0.00 0.00 31 1007.3
20190920103010 73 267 0.0 0.0 0.00 0.00 0.00 30 1007.2
20190920102511 73 267 0.0 0.0 0.00 0.00 0.00 30 1007.3
20190920102011 73 267 0.0 0.0 0.00 0.00 0.00 30 1007.2
20190920101511 73 267 0.0 0.0 0.00 0.00 0.00 30 1007.2
20190920101011 73 267 0.0 0.0 0.00 0.00 0.00 31 1007.2
20190920100511 73 267 0.0 0.0 0.00 0.00 0.00 30 1007.1
20190920100011 73 267 0.0 0.0 0.00 0.00 0.00 31 1007.1
20190920095511 74 267 0.0 0.0 0.00 0.00 0.00 31 1007.0
20190920095011 74 267 0.0 0.0 0.00 0.00 0.00 31 1007.0
20190920094511 74 267 0.0 0.0 0.00 0.00 0.00 28 1007.0
20190920094011 75 267 0.0 0.0 0.00 0.00 0.00 28 1006.9
20190920093511 75 267 0.0 0.0 0.00 0.00 0.00 27 1006.9
20190920093011 75 267 0.0 0.0 0.00 0.00 0.00 28 1007.0
20190920092511 75 267 0.0 0.0 0.00 0.00 0.00 28 1007.0
20190920092011 76 267 0.0 0.0 0.00 0.00 0.00 27 1007.0
20190920091511 76 267 0.0 0.0 0.00 0.00 0.00 27 1007.0
20190920091011 76 267 0.0 0.0 0.00 0.00 0.00 26 1007.0
20190920090511 76 267 0.0 0.0 0.00 0.00 0.00 27 1007.0
20190920090011 76 267 0.0 0.0 0.00 0.00 0.00 26 1007.0
20190920085511 76 267 0.0 0.0 0.00 0.00 0.00 26 1007.0
20190920085011 76 267 0.0 0.0 0.00 0.00 0.00 25 1007.0
20190920084511 77 267 0.0 0.0 0.00 0.00 0.00 25 1007.0
20190920084011 77 267 0.0 0.0 0.00 0.00 0.00 25 1007.0
20190920083511 77 267 0.0 0.0 0.00 0.00 0.00 25 1007.0
20190920083011 77 267 0.0 0.0 0.00 0.00 0.00 25 1006.9
20190920082511 78 267 0.0 0.0 0.00 0.00 0.00 26 1006.9
20190920082011 78 267 0.0 0.0 0.00 0.00 0.00 27 1007.0
20190920081511 78 267 0.0 0.0 0.00 0.00 0.00 26 1006.9
20190920081011 79 267 0.0 0.0 0.00 0.00 0.00 26 1006.9
20190920080511 79 267 0.0 0.0 0.00 0.00 0.00 26 1006.8
20190920080011 79 267 0.0 0.0 0.00 0.00 0.00 27 1006.8
20190920075511 79 267 0.0 0.0 0.00 0.00 0.00 27 1006.7
20190920075011 79 267 0.0 0.0 0.00 0.00 0.00 27 1006.6
20190920074511 79 267 0.0 0.0 0.00 0.00 0.00 27 1006.6
20190920074011 79 267 0.0 0.0 0.00 0.00 0.00 28 1006.5
20190920073510 79 267 0.0 0.0 0.00 0.00 0.00 29 1006.5
20190920073011 79 267 0.0 0.0 0.00 0.00 0.00 29 1006.4
20190920072510 80 267 0.0 0.0 0.00 0.00 0.00 28 1006.4
20190920072011 80 267 0.0 0.0 0.00 0.00 0.00 27 1006.4
20190920071511 80 267 0.0 0.0 0.00 0.00 0.00 28 1006.2
20190920071011 80 267 0.0 0.0 0.00 0.00 0.00 27 1006.2
20190920070511 81 267 0.0 0.0 0.00 0.00 0.00 27 1006.1
20190920070011 81 267 0.0 0.0 0.00 0.00 0.00 28 1006.1
20190920065510 81 267 0.0 0.0 0.00 0.00 0.00 27 1006.0
20190920065011 82 267 0.0 0.0 0.00 0.00 0.00 27 1006.1
20190920064511 82 267 0.0 0.0 0.00 0.00 0.00 27 1006.0
20190920064011 81 267 0.0 0.0 0.00 0.00 0.00 27 1005.9
20190920063511 82 267 0.0 0.0 0.00 0.00 0.00 27 1005.9
20190920063010 82 267 0.0 0.0 0.00 0.00 0.00 27 1005.8
20190920062511 82 267 0.0 0.0 0.00 0.00 0.00 27 1005.7
20190920062010 82 267 0.0 0.0 0.00 0.00 0.00 26 1005.7
20190920061511 82 267 0.0 0.0 0.00 0.00 0.00 26 1005.6
20190920061011 82 267 0.0 0.0 0.00 0.00 0.00 26 1005.6
20190920060510 83 267 0.0 0.0 0.00 0.00 0.00 25 1005.5
20190920060011 83 267 0.0 0.0 0.00 0.00 0.00 25 1005.5
20190920055510 84 267 0.0 0.0 0.00 0.00 0.00 25 1005.4
20190920055010 84 267 0.0 0.0 0.00 0.00 0.00 23 1005.5
20190920054511 85 267 0.0 0.0 0.00 0.00 0.00 23 1005.3
20190920054010 85 267 0.0 0.0 0.00 0.00 0.00 22 1005.3
20190920053511 85 267 0.0 0.0 0.00 0.00 0.00 21 1005.3
20190920053010 85 267 0.0 0.0 0.00 0.00 0.00 22 1005.3
20190920052510 86 267 0.0 0.0 0.00 0.00 0.00 22 1005.2
20190920052010 86 267 0.0 0.0 0.00 0.00 0.00 22 1005.2
20190920051510 86 267 0.0 0.0 0.00 0.00 0.00 21 1005.1
20190920051011 86 267 0.0 0.0 0.00 0.00 0.00 21 1005.0
20190920050510 86 267 0.0 0.0 0.00 0.00 0.00 21 1005.0
20190920050010 87 267 0.0 0.0 0.00 0.00 0.00 21 1005.0
20190920045510 87 267 0.0 0.0 0.00 0.00 0.00 20 1004.8
20190920045011 87 267 0.0 0.0 0.00 0.00 0.00 20 1004.8
20190920044511 87 267 0.0 0.0 0.00 0.00 0.00 20 1004.8
20190920044011 88 266 0.0 0.0 0.00 0.00 0.00 20 1004.9
20190920043510 88 258 0.0 0.0 0.00 0.00 0.00 20 1004.8
20190920043011 88 273 0.0 0.0 0.00 0.00 0.00 20 1004.7
20190920042511 88 276 0.0 0.0 0.00 0.00 0.00 20 1004.7
20190920042010 88 279 3.0 0.0 0.00 0.00 0.00 20 1004.8
20190920041510 89 294 0.0 0.0 0.00 0.00 0.00 20 1004.8
20190920041010 89 278 2.0 0.0 0.00 0.00 0.00 19 1004.7
20190920040511 89 269 5.0 0.0 0.00 0.00 0.00 19 1004.7
20190920040010 89 294 0.0 0.0 0.00 0.00 0.00 19 1004.7
20190920035510 89 263 0.0 0.0 0.00 0.00 0.00 19 1004.7
20190920035011 90 267 0.0 0.0 0.00 0.00 0.00 19 1004.6
20190920034511 90 273 4.0 0.0 0.00 0.00 0.00 19 1004.5
20190920034013 90 269 2.0 0.0 0.00 0.00 0.00 19 1004.5
20190920033510 90 276 0.0 0.0 0.00 0.00 0.00 19 1004.5
20190920033010 90 279 0.0 0.0 0.00 0.00 0.00 18 1004.5
20190920032510 90 279 2.0 0.0 0.00 0.00 0.00 18 1004.5
20190920032010 90 277 1.0 0.0 0.00 0.00 0.00 18 1004.5
20190920031510 90 276 2.0 0.0 0.00 0.00 0.00 18 1004.4
20190920031011 90 275 3.0 0.0 0.00 0.00 0.00 17 1004.3
20190920030511 91 284 0.0 0.0 0.00 0.00 0.00 17 1004.3
20190920030011 91 277 0.0 0.0 0.00 0.00 0.00 18 1004.1
20190920025511 91 275 7.0 0.0 0.00 0.00 0.00 18 1004.1
20190920025011 91 276 4.0 0.0 0.00 0.00 0.00 19 1004.1
20190920024511 91 272 2.0 0.0 0.00 0.00 0.00 19 1004.0
20190920024011 91 273 0.0 0.0 0.00 0.00 0.00 19 1004.0
20190920023511 92 286 0.0 0.0 0.00 0.00 0.00 19 1004.0
20190920023012 92 282 0.0 0.0 0.00 0.00 0.00 20 1003.9
20190920022511 92 283 0.0 0.0 0.00 0.00 0.00 20 1003.8
20190920022011 92 286 4.0 0.0 0.00 0.00 0.00 20 1003.9
20190920021511 92 266 6.0 0.0 0.00 0.00 0.00 21 1003.9
20190920021011 92 267 0.0 0.0 0.00 0.00 0.00 22 1003.8
20190920020511 92 261 1.0 0.0 0.00 0.00 0.00 22 1003.8
20190920020011 93 275 9.0 0.0 0.00 0.00 0.00 22 1003.7
20190920015511 93 246 1.0 0.0 0.00 0.00 0.00 22 1003.6
20190920015011 94 273 1.0 0.0 0.00 0.00 0.00 23 1003.6
20190920014511 94 258 4.0 0.0 0.00 0.00 0.00 23 1003.6
20190920014011 95 267 4.0 0.0 0.00 0.00 0.00 21 1003.6
20190920013511 95 200 0.0 0.0 0.00 0.00 0.00 20 1003.6
20190920013011 96 259 0.0 0.0 0.00 0.00 0.00 20 1003.5
20190920012511 96 260 0.0 0.0 0.00 0.00 0.00 19 1003.5
20190920012011 96 259 0.0 0.0 0.00 0.00 0.00 19 1003.4
20190920011511 97 259 0.0 0.0 0.00 0.00 0.00 19 1003.5
20190920011011 97 259 0.0 0.0 0.00 0.00 0.00 19 1003.4
20190920010511 97 259 0.0 0.0 0.00 0.00 0.00 19 1003.5
20190920010011 97 265 6.0 0.0 0.00 0.00 0.00 19 1003.5
20190920005511 97 271 0.0 0.0 0.00 0.00 0.00 19 1003.5
20190920005011 97 277 0.0 0.0 0.00 0.00 0.00 20 1003.6
20190920004511 97 282 0.0 0.0 0.00 0.00 0.00 21 1003.7
20190920004029 97 281 0.0 0.0 0.00 0.00 0.00 20 1003.7
20190920003511 97 269 4.0 0.0 0.00 0.00 0.00 20 1003.7
20190920003011 98 272 4.0 0.0 0.00 0.00 0.00 20 1003.7
20190920002511 99 217 4.0 0.0 0.00 0.00 0.00 20 1003.7
20190920002011 98 254 0.0 0.0 0.00 0.00 0.00 19 1003.8
20190920001511 98 254 0.0 0.0 0.00 0.00 0.00 19 1003.8
20190920001011 98 242 1.0 0.0 0.00 0.00 0.00 21 1003.8
20190920000510 98 250 4.0 0.0 0.00 0.00 0.00 20 1003.9
20190920000010 99 255 7.0 0.0 0.00 0.00 0.00 20 1004.0
20190919235510 99 226 4.0 0.0 0.00 0.00 0.00 19 1003.9
20190919235011 99 221 0.0 0.0 0.00 0.00 0.00 19 1004.0
20190919234510 99 221 0.0 0.0 0.00 0.00 0.00 19 1004.0
20190919234011 99 243 0.0 0.0 0.00 0.00 0.00 18 1004.1
20190919233511 99 256 0.0 0.0 0.00 0.00 0.00 18 1004.1
20190919233010 100 243 4.0 0.0 0.00 0.00 0.00 19 1004.0
20190919232511 100 194 0.0 0.0 0.00 0.00 0.00 18 1004.1
20190919232011 100 204 0.0 0.0 0.00 0.00 0.00 18 1004.1
20190919231510 100 206 3.0 0.0 0.00 0.00 0.00 18 1004.2
20190919231010 100 242 2.0 0.0 0.00 0.00 0.00 17 1004.2
20190919230511 101 192 0.0 0.0 0.00 0.00 0.00 16 1004.2
20190919230010 101 191 0.0 0.0 0.00 0.00 0.00 16 1004.3
20190919225510 101 190 0.0 0.0 0.00 0.00 0.00 16 1004.3
20190919225011 101 192 0.0 0.0 0.00 0.00 0.00 16 1004.2
20190919224510 101 192 0.0 0.0 0.00 0.00 0.00 16 1004.3
20190919224011 101 226 0.0 0.0 0.00 0.00 0.00 16 1004.4
20190919223510 101 182 0.0 0.0 0.00 0.00 0.00 16 1004.3
20190919223011 100 182 0.0 0.0 0.00 0.00 0.00 15 1004.4
20190919222510 100 180 0.0 0.0 0.00 0.00 0.00 15 1004.4
20190919222010 100 194 3.0 0.0 0.00 0.00 0.00 16 1004.5
20190919221510 100 218 0.0 0.0 0.00 0.00 0.00 16 1004.4
20190919221011 100 226 0.0 0.0 0.00 0.00 0.00 17 1004.6
20190919220511 99 279 5.0 0.0 0.00 0.00 0.00 18 1004.5
20190919220011 99 260 3.0 0.0 0.00 0.00 0.00 19 1004.6
20190919215510 99 250 0.0 0.0 0.00 0.00 0.00 19 1004.8
20190919215011 100 240 0.0 0.0 0.00 0.00 0.00 19 1004.8
20190919214511 99 209 1.0 0.0 0.00 0.00 0.00 19 1004.8
20190919214011 99 223 0.0 0.0 0.00 0.00 0.00 19 1004.9
20190919213510 99 198 6.0 0.0 0.00 0.00 0.00 19 1004.9
20190919213010 99 304 2.0 0.0 0.00 0.00 0.00 19 1004.9
20190919212511 100 277 6.0 0.0 0.00 0.00 0.00 19 1005.1
20190919212012 100 200 5.0 0.0 0.00 0.00 0.00 18 1005.1
20190919211513 100 278 6.0 0.0 0.00 0.00 0.00 17 1005.2
20190919211010 100 217 1.0 0.0 0.00 0.00 0.00 19 1005.4
20190919210511 100 212 0.0 0.0 0.00 0.00 0.00 19 1005.3
20190919210010 100 211 0.0 0.0 0.00 0.00 0.00 19 1005.5
20190919205511 99 213 3.0 0.0 0.00 0.00 0.00 20 1005.6
20190919205011 99 212 2.0 0.0 0.00 0.00 0.00 20 1005.7
20190919204513 99 253 0.0 0.0 0.00 0.00 0.00 19 1005.7
20190919204010 100 257 5.0 0.0 0.00 0.00 0.00 19 1005.7
20190919203510 99 279 2.0 0.0 0.00 0.00 0.00 19 1005.8
20190919203010 100 230 5.0 0.0 0.00 0.00 0.00 19 1005.9
20190919202510 100 225 0.0 0.0 0.00 0.00 0.00 19 1005.9
20190919202010 100 260 0.0 0.0 0.00 0.00 0.00 19 1006.0
20190919201510 100 189 0.0 0.0 0.00 0.00 0.00 19 1006.1
20190919201010 100 141 2.0 0.0 0.00 0.00 0.00 19 1006.2
20190919200510 99 201 0.0 0.0 0.00 0.00 0.00 20 1006.3
20190919200010 98 148 0.0 0.0 0.00 0.00 0.00 20 1006.4
20190919195510 98 206 0.0 0.0 0.00 0.00 0.00 21 1006.5
20190919195010 98 166 0.0 0.0 0.00 0.00 0.00 20 1006.6
20190919194511 98 197 0.0 0.0 0.00 0.00 0.00 20 1006.7
20190919194011 98 202 1.0 0.0 0.00 0.00 0.00 21 1006.9
20190919193511 97 193 2.0 0.0 0.00 0.00 0.00 21 1006.9
20190919193011 97 212 2.0 0.0 0.00 0.00 0.00 21 1007.1
20190919192511 97 132 0.0 0.0 0.00 0.00 0.00 21 1007.1
20190919192011 97 254 0.0 0.0 0.00 0.00 0.00 21 1007.2
20190919191512 97 217 1.0 0.0 0.00 0.00 0.00 21 1007.3
20190919191011 97 177 5.0 0.0 0.00 0.00 0.00 20 1007.4
20190919190511 97 133 5.0 0.0 0.00 0.00 0.00 21 1007.4
20190919190012 97 124 0.0 0.0 0.00 0.00 0.00 21 1007.5
20190919185511 97 186 1.0 0.0 0.00 0.00 0.00 21 1007.6
20190919185011 97 207 0.0 0.0 0.00 0.00 0.00 21 1007.6
20190919184511 97 190 0.0 0.0 0.00 0.00 0.00 22 1007.7
20190919184011 97 173 0.0 0.0 0.00 0.00 0.00 21 1007.7
20190919183511 97 126 2.0 0.0 0.00 0.00 0.00 20 1007.7
20190919183011 97 128 0.0 0.0 0.00 0.00 0.00 21 1007.8
20190919182511 96 171 0.0 0.0 0.00 0.00 0.00 21 1007.9
20190919182011 96 144 5.0 0.0 0.00 0.00 0.00 21 1007.9
20190919181511 96 142 0.0 0.0 0.00 0.00 0.00 22 1008.0
20190919181011 95 136 7.0 0.0 0.00 0.00 0.00 23 1008.1
20190919180511 95 142 4.0 0.0 0.00 0.00 0.00 24 1008.1
20190919180011 95 185 2.0 0.0 0.00 0.00 0.00 24 1008.1
20190919175512 95 182 0.0 0.0 0.00 0.00 0.00 24 1008.3
20190919175011 94 182 0.0 0.0 0.00 0.00 0.00 24 1008.4
20190919174511 95 182 0.0 0.0 0.00 0.00 0.00 25 1008.6
20190919174011 94 181 0.0 0.0 0.00 0.00 0.00 24 1008.7
20190919173511 94 184 0.0 0.0 0.00 0.00 0.00 25 1008.8
20190919173011 94 184 0.0 0.0 0.00 0.00 0.00 24 1008.9
20190919172511 94 155 0.0 0.0 0.00 0.00 0.00 25 1008.8
20190919172011 93 125 0.0 0.0 0.00 0.00 0.00 26 1009.0
20190919171511 93 125 0.0 0.0 0.00 0.00 0.00 26 1009.0
20190919171011 93 125 0.0 0.0 0.00 0.00 0.00 26 1009.0
20190919170511 92 125 0.0 0.0 0.00 0.00 0.00 27 1009.1
20190919170010 92 123 0.0 0.0 0.00 0.00 0.00 27 1009.1
20190919165511 91 123 0.0 0.0 0.00 0.00 0.00 27 1009.1
20190919165010 91 123 0.0 0.0 0.00 0.00 0.00 27 1009.2
20190919164511 91 122 0.0 0.0 0.00 0.00 0.00 28 1009.3
20190919164011 90 121 0.0 0.0 0.00 0.00 0.00 29 1009.3
20190919163510 90 121 0.0 0.0 0.00 0.00 0.00 29 1009.3
20190919163010 89 117 0.0 0.0 0.00 0.00 0.00 29 1009.3
20190919162511 89 119 0.0 0.0 0.00 0.00 0.00 29 1009.3
20190919162011 89 119 0.0 0.0 0.00 0.00 0.00 29 1009.3
20190919161510 88 118 0.0 0.0 0.00 0.00 0.00 30 1009.3
20190919161011 88 118 0.0 0.0 0.00 0.00 0.00 30 1009.3
20190919160511 88 120 0.0 0.0 0.00 0.00 0.00 30 1009.3
20190919160010 88 118 0.0 0.0 0.00 0.00 0.00 31 1009.4
20190919155510 87 126 0.0 0.0 0.00 0.00 0.00 32 1009.4
20190919155010 86 130 0.0 0.0 0.00 0.00 0.00 32 1009.4
20190919154510 86 129 0.0 0.0 0.00 0.00 0.00 32 1009.4
20190919154010 86 150 0.0 0.0 0.00 0.00 0.00 32 1009.4
20190919153511 86 152 0.0 0.0 0.00 0.00 0.00 33 1009.5
20190919153011 85 298 0.0 0.0 0.00 0.00 0.00 33 1009.5
20190919152511 85 217 0.0 0.0 0.00 0.00 0.00 34 1009.4
20190919152010 84 218 0.0 0.0 0.00 0.00 0.00 34 1009.4
20190919151510 84 219 0.0 0.0 0.00 0.00 0.00 34 1009.4
20190919151010 84 225 0.0 0.0 0.00 0.00 0.00 34 1009.4
20190919150510 83 225 0.0 0.0 0.00 0.00 0.00 35 1009.4
20190919150010 83 226 0.0 0.0 0.00 0.00 0.00 35 1009.4
20190919145511 83 226 0.0 0.0 0.00 0.00 0.00 35 1009.4
20190919145010 82 226 0.0 0.0 0.00 0.00 0.00 36 1009.4
20190919144510 82 226 0.0 0.0 0.00 0.00 0.00 36 1009.5
20190919144010 81 226 0.0 0.0 0.00 0.00 0.00 36 1009.5
20190919143511 81 226 0.0 0.0 0.00 0.00 0.00 36 1009.4
20190919143010 81 227 0.0 0.0 0.00 0.00 0.00 36 1009.4
20190919142511 80 227 0.0 0.0 0.00 0.00 0.00 37 1009.3
20190919142010 80 227 0.0 0.0 0.00 0.00 0.00 37 1009.3
20190919141511 80 227 0.0 0.0 0.00 0.00 0.00 38 1009.2
20190919141010 79 229 0.0 0.0 0.00 0.00 0.00 37 1009.1
20190919140510 79 251 0.0 0.0 0.00 0.00 0.00 38 1009.1
20190919140011 79 251 0.0 0.0 0.00 0.00 0.00 38 1009.0
20190919135510 79 251 0.0 0.0 0.00 0.00 0.00 38 1009.0
20190919135010 78 251 0.0 0.0 0.00 0.00 0.00 39 1008.9
20190919134510 78 251 0.0 0.0 0.00 0.00 0.00 39 1008.8
20190919134011 78 251 0.0 0.0 0.00 0.00 0.00 39 1008.8
20190919133510 78 251 0.0 0.0 0.00 0.00 0.00 39 1008.8
20190919133010 78 251 0.0 0.0 0.00 0.00 0.00 40 1008.7
20190919132510 78 251 0.0 0.0 0.00 0.00 0.00 40 1008.6
20190919132010 78 251 0.0 0.0 0.00 0.00 0.00 40 1008.6
20190919131510 78 251 0.0 0.0 0.00 0.00 0.00 40 1008.6
20190919131010 78 251 0.0 0.0 0.00 0.00 0.00 40 1008.5
20190919130510 78 251 0.0 0.0 0.00 0.00 0.00 40 1008.5
20190919130010 78 251 0.0 0.0 0.00 0.00 0.00 40 1008.4
20190919125511 78 251 0.0 0.0 0.00 0.00 0.00 40 1008.4
20190919125010 78 251 0.0 0.0 0.00 0.00 0.00 39 1008.4
20190919124510 78 251 0.0 0.0 0.00 0.00 0.00 39 1008.4
20190919124010 78 251 0.0 0.0 0.00 0.00 0.00 39 1008.3
20190919123510 78 251 0.0 0.0 0.00 0.00 0.00 39 1008.3
20190919123010 78 251 0.0 0.0 0.00 0.00 0.00 39 1008.3
20190919122511 78 257 0.0 0.0 0.00 0.00 0.00 39 1008.3
20190919122011 78 257 0.0 0.0 0.00 0.00 0.00 39 1008.3
20190919121511 79 257 0.0 0.0 0.00 0.00 0.00 39 1008.3
20190919121011 79 257 0.0 0.0 0.00 0.00 0.00 39 1008.3
20190919120511 78 257 0.0 0.0 0.00 0.00 0.00 39 1008.3
20190919120011 79 257 0.0 0.0 0.00 0.00 0.00 40 1008.4
20190919115511 78 257 0.0 0.0 0.00 0.00 0.00 40 1008.3
20190919115011 78 257 0.0 0.0 0.00 0.00 0.00 40 1008.3
20190919114512 78 257 0.0 0.0 0.00 0.00 0.00 40 1008.3
20190919114011 78 257 0.0 0.0 0.00 0.00 0.00 40 1008.3